STARLINK-4495, 53552

Orbit data source: Space-Track

STARLINK-4495, 53552 is a payload satellite owned by SpaceX/Seattle (US) in LEO that was launched on Fri, 19 Aug 2022 UTC via an FALCON 9 launch vehicle from the Air Force Eastern Test Range (AFETR). Payload-class satellites include a variety of spacecraft equipped with specific instruments for various scientific and technological missions. These include communications satellites like Starlink; space stations such as the ISS; scientific satellites like the Hubble; Earth observation satellites from companies like Planet Labs, Umbra, and HawkEye 360; GPS; miniature CubeSats for education and research; and military/defense satellites.

Loading next visibility...
Identifier
53552, 2022-101AB
Orbit
LEO
Country
Flag of USUS
Related business
Manufacturer
SpaceX/Seattle
Mission
Operational Commercial Communications
Bus & Motor
STARLINK, Unknown motor
Mass
300 kg wet, ~290 kg dry
Launch date (UTC)
2022-08-19 (4 years ago)
Launch vehicle
FALCON 9
Launch site
Air Force Eastern Test Range (AFETR)
Object type
Payload
Rocket body
Debris
Shape & HBR
Box + 1 Pan, 10.1 m
Radar Cross Section
13.562 m², Large (>1 m²)

Expand to show TLE details & history
Last TLE update: 2 days ago

TLE from 2 days ago
0 STARLINK-4495
1 53552U 22101AB  26171.40473742  .00000678  00000-0  60675-4 0  9993
2 53552  53.1603 322.8982 0001003  81.0442 279.0663 15.08832882212460
Epoch: 2026-06-20T09:42Z
TLE epoch observation values (Epoch: 2026-06-20T09:42:49.313Z)
Latitude
Longitude
-91.42711°
Altitude
540.547 km
Speed
7.593 km/s
True Right ascension
21h 31m 35s
True Declination
0° 00' 00"
Sunlit
Object was in full shadow at epoch
Visualization orbit readout
Latitude
Unknown
Longitude
Unknown
Altitude
Unknown
Speed
Unknown
Apparent Right ascension
Unknown
Apparent Declination
Unknown
Sunlit
N/A
Visualization observer readout
Local Sidereal Time
21:28:38
Azimuth
Unknown
Elevation
Unknown
Doppler factor
Unknown
Orbital elements
Apogee altitude
540.713 km
Perigee altitude
539.325 km
Semi-major axis
6,918.156 km
Eccentricity
0.0001
Inclination
53.1603°
RAAN
322.8982°
Arg. of periapsis
81.0442°
True anomaly
279.05495°
Mean anomaly
279.0663°
Eccentric anomaly
279.06062°
Mean motion
3.77188 °/min
Orbital period
95.44 mins
BSTAR
0.000060675
Loading maneuver chart data...
Computing Atmospheric mass density...
Loading historical data...
Loading historical data...
Loading historical data...
Loading historical data...
Loading historical data...
Loading historical data...
Loading historical data...

Documentation

Showing up to 5 results
|